<?xml version="1.0"?>
<gpx xmlns="http://www.topografix.com/GPX/1/1" xmlns:xsi="http://www.w3.org/2001/XMLSchema-instance" version="1.1" creator="GPX RubyGem 1.0.0 -- http://dougfales.github.io/gpx/" xsi:schemaLocation="http://www.topografix.com/GPX/1/1 http://www.topografix.com/GPX/1/1/gpx.xsd">
  <metadata>
    <name/>
    <time>2026-05-07T07:11:11+00:00</time>
    <bound minlat="90.0" minlon="180.0" maxlat="-90.0" maxlon="-180.0"/>
  </metadata>
  <trk>
    <name/>
    <trkseg>
      <trkpt lat="46.620377" lon="12.216483">
        <time>1970-01-01T00:00:00+00:00</time>
        <ele>1444.0</ele>
      </trkpt>
      <trkpt lat="46.620399" lon="12.2162">
        <time>1970-01-01T00:00:00+00:00</time>
        <ele>1446.0</ele>
      </trkpt>
      <trkpt lat="46.620545" lon="12.21567">
        <time>1970-01-01T00:00:00+00:00</time>
        <ele>1452.0</ele>
      </trkpt>
      <trkpt lat="46.620718" lon="12.21549">
        <time>1970-01-01T00:00:00+00:00</time>
        <ele>1460.0</ele>
      </trkpt>
      <trkpt lat="46.621074" lon="12.214416">
        <time>1970-01-01T00:00:00+00:00</time>
        <ele>1474.0</ele>
      </trkpt>
      <trkpt lat="46.621309" lon="12.214103">
        <time>1970-01-01T00:00:00+00:00</time>
        <ele>1480.0</ele>
      </trkpt>
      <trkpt lat="46.621364" lon="12.21418">
        <time>1970-01-01T00:00:00+00:00</time>
        <ele>1483.0</ele>
      </trkpt>
      <trkpt lat="46.621335" lon="12.21485">
        <time>1970-01-01T00:00:00+00:00</time>
        <ele>1484.0</ele>
      </trkpt>
      <trkpt lat="46.621449" lon="12.215633">
        <time>1970-01-01T00:00:00+00:00</time>
        <ele>1488.0</ele>
      </trkpt>
      <trkpt lat="46.621442" lon="12.215923">
        <time>1970-01-01T00:00:00+00:00</time>
        <ele>1490.0</ele>
      </trkpt>
      <trkpt lat="46.62158" lon="12.216026">
        <time>1970-01-01T00:00:00+00:00</time>
        <ele>1497.0</ele>
      </trkpt>
      <trkpt lat="46.621628" lon="12.214727">
        <time>1970-01-01T00:00:00+00:00</time>
        <ele>1495.0</ele>
      </trkpt>
      <trkpt lat="46.621775" lon="12.214315">
        <time>1970-01-01T00:00:00+00:00</time>
        <ele>1501.0</ele>
      </trkpt>
      <trkpt lat="46.622058" lon="12.213834">
        <time>1970-01-01T00:00:00+00:00</time>
        <ele>1505.0</ele>
      </trkpt>
      <trkpt lat="46.622156" lon="12.213434">
        <time>1970-01-01T00:00:00+00:00</time>
        <ele>1506.0</ele>
      </trkpt>
      <trkpt lat="46.622121" lon="12.213264">
        <time>1970-01-01T00:00:00+00:00</time>
        <ele>1504.0</ele>
      </trkpt>
      <trkpt lat="46.622133" lon="12.213315">
        <time>1970-01-01T00:00:00+00:00</time>
        <ele>1505.0</ele>
      </trkpt>
      <trkpt lat="46.62223" lon="12.212987">
        <time>1970-01-01T00:00:00+00:00</time>
        <ele>1507.0</ele>
      </trkpt>
      <trkpt lat="46.622289" lon="12.212449">
        <time>1970-01-01T00:00:00+00:00</time>
        <ele>1509.0</ele>
      </trkpt>
      <trkpt lat="46.622434" lon="12.212101">
        <time>1970-01-01T00:00:00+00:00</time>
        <ele>1515.0</ele>
      </trkpt>
      <trkpt lat="46.622673" lon="12.211027">
        <time>1970-01-01T00:00:00+00:00</time>
        <ele>1521.0</ele>
      </trkpt>
      <trkpt lat="46.622787" lon="12.210903">
        <time>1970-01-01T00:00:00+00:00</time>
        <ele>1525.0</ele>
      </trkpt>
      <trkpt lat="46.622994" lon="12.210327">
        <time>1970-01-01T00:00:00+00:00</time>
        <ele>1532.0</ele>
      </trkpt>
      <trkpt lat="46.622941" lon="12.209829">
        <time>1970-01-01T00:00:00+00:00</time>
        <ele>1527.0</ele>
      </trkpt>
      <trkpt lat="46.623072" lon="12.209198">
        <time>1970-01-01T00:00:00+00:00</time>
        <ele>1532.0</ele>
      </trkpt>
      <trkpt lat="46.623554" lon="12.207694">
        <time>1970-01-01T00:00:00+00:00</time>
        <ele>1547.0</ele>
      </trkpt>
      <trkpt lat="46.623783" lon="12.207257">
        <time>1970-01-01T00:00:00+00:00</time>
        <ele>1552.0</ele>
      </trkpt>
      <trkpt lat="46.624006" lon="12.207017">
        <time>1970-01-01T00:00:00+00:00</time>
        <ele>1553.0</ele>
      </trkpt>
      <trkpt lat="46.624083" lon="12.20709">
        <time>1970-01-01T00:00:00+00:00</time>
        <ele>1557.0</ele>
      </trkpt>
      <trkpt lat="46.624074" lon="12.207193">
        <time>1970-01-01T00:00:00+00:00</time>
        <ele>1560.0</ele>
      </trkpt>
      <trkpt lat="46.623791" lon="12.207529">
        <time>1970-01-01T00:00:00+00:00</time>
        <ele>1557.0</ele>
      </trkpt>
      <trkpt lat="46.623594" lon="12.208198">
        <time>1970-01-01T00:00:00+00:00</time>
        <ele>1556.0</ele>
      </trkpt>
      <trkpt lat="46.623564" lon="12.208496">
        <time>1970-01-01T00:00:00+00:00</time>
        <ele>1557.0</ele>
      </trkpt>
      <trkpt lat="46.623657" lon="12.208893">
        <time>1970-01-01T00:00:00+00:00</time>
        <ele>1565.0</ele>
      </trkpt>
      <trkpt lat="46.623638" lon="12.209324">
        <time>1970-01-01T00:00:00+00:00</time>
        <ele>1566.0</ele>
      </trkpt>
      <trkpt lat="46.623781" lon="12.209572">
        <time>1970-01-01T00:00:00+00:00</time>
        <ele>1576.0</ele>
      </trkpt>
      <trkpt lat="46.623375" lon="12.211637">
        <time>1970-01-01T00:00:00+00:00</time>
        <ele>1575.0</ele>
      </trkpt>
      <trkpt lat="46.623428" lon="12.21194">
        <time>1970-01-01T00:00:00+00:00</time>
        <ele>1578.0</ele>
      </trkpt>
      <trkpt lat="46.623807" lon="12.212291">
        <time>1970-01-01T00:00:00+00:00</time>
        <ele>1590.0</ele>
      </trkpt>
      <trkpt lat="46.623887" lon="12.212634">
        <time>1970-01-01T00:00:00+00:00</time>
        <ele>1592.0</ele>
      </trkpt>
      <trkpt lat="46.623746" lon="12.214139">
        <time>1970-01-01T00:00:00+00:00</time>
        <ele>1603.0</ele>
      </trkpt>
      <trkpt lat="46.623517" lon="12.215258">
        <time>1970-01-01T00:00:00+00:00</time>
        <ele>1606.0</ele>
      </trkpt>
      <trkpt lat="46.623651" lon="12.215169">
        <time>1970-01-01T00:00:00+00:00</time>
        <ele>1615.0</ele>
      </trkpt>
      <trkpt lat="46.623722" lon="12.214716">
        <time>1970-01-01T00:00:00+00:00</time>
        <ele>1611.0</ele>
      </trkpt>
      <trkpt lat="46.624127" lon="12.213614">
        <time>1970-01-01T00:00:00+00:00</time>
        <ele>1621.0</ele>
      </trkpt>
      <trkpt lat="46.62422" lon="12.212899">
        <time>1970-01-01T00:00:00+00:00</time>
        <ele>1618.0</ele>
      </trkpt>
      <trkpt lat="46.624423" lon="12.212033">
        <time>1970-01-01T00:00:00+00:00</time>
        <ele>1632.0</ele>
      </trkpt>
      <trkpt lat="46.624359" lon="12.211574">
        <time>1970-01-01T00:00:00+00:00</time>
        <ele>1631.0</ele>
      </trkpt>
      <trkpt lat="46.624233" lon="12.211281">
        <time>1970-01-01T00:00:00+00:00</time>
        <ele>1631.0</ele>
      </trkpt>
      <trkpt lat="46.624345" lon="12.210604">
        <time>1970-01-01T00:00:00+00:00</time>
        <ele>1637.0</ele>
      </trkpt>
      <trkpt lat="46.62443" lon="12.210422">
        <time>1970-01-01T00:00:00+00:00</time>
        <ele>1639.0</ele>
      </trkpt>
      <trkpt lat="46.624843" lon="12.210036">
        <time>1970-01-01T00:00:00+00:00</time>
        <ele>1653.0</ele>
      </trkpt>
      <trkpt lat="46.62506" lon="12.209176">
        <time>1970-01-01T00:00:00+00:00</time>
        <ele>1652.0</ele>
      </trkpt>
      <trkpt lat="46.625273" lon="12.208971">
        <time>1970-01-01T00:00:00+00:00</time>
        <ele>1660.0</ele>
      </trkpt>
      <trkpt lat="46.625467" lon="12.208281">
        <time>1970-01-01T00:00:00+00:00</time>
        <ele>1660.0</ele>
      </trkpt>
      <trkpt lat="46.625692" lon="12.208011">
        <time>1970-01-01T00:00:00+00:00</time>
        <ele>1665.0</ele>
      </trkpt>
      <trkpt lat="46.626039" lon="12.207417">
        <time>1970-01-01T00:00:00+00:00</time>
        <ele>1669.0</ele>
      </trkpt>
      <trkpt lat="46.626704" lon="12.207044">
        <time>1970-01-01T00:00:00+00:00</time>
        <ele>1678.0</ele>
      </trkpt>
      <trkpt lat="46.626825" lon="12.207025">
        <time>1970-01-01T00:00:00+00:00</time>
        <ele>1681.0</ele>
      </trkpt>
      <trkpt lat="46.627069" lon="12.20716">
        <time>1970-01-01T00:00:00+00:00</time>
        <ele>1691.0</ele>
      </trkpt>
      <trkpt lat="46.627276" lon="12.207123">
        <time>1970-01-01T00:00:00+00:00</time>
        <ele>1694.0</ele>
      </trkpt>
      <trkpt lat="46.627406" lon="12.207025">
        <time>1970-01-01T00:00:00+00:00</time>
        <ele>1694.0</ele>
      </trkpt>
      <trkpt lat="46.627446" lon="12.206688">
        <time>1970-01-01T00:00:00+00:00</time>
        <ele>1689.0</ele>
      </trkpt>
      <trkpt lat="46.627552" lon="12.206557">
        <time>1970-01-01T00:00:00+00:00</time>
        <ele>1689.0</ele>
      </trkpt>
      <trkpt lat="46.627703" lon="12.206693">
        <time>1970-01-01T00:00:00+00:00</time>
        <ele>1696.0</ele>
      </trkpt>
      <trkpt lat="46.62764" lon="12.207195">
        <time>1970-01-01T00:00:00+00:00</time>
        <ele>1703.0</ele>
      </trkpt>
      <trkpt lat="46.627302" lon="12.207497">
        <time>1970-01-01T00:00:00+00:00</time>
        <ele>1707.0</ele>
      </trkpt>
      <trkpt lat="46.62706" lon="12.207589">
        <time>1970-01-01T00:00:00+00:00</time>
        <ele>1702.0</ele>
      </trkpt>
      <trkpt lat="46.626948" lon="12.207793">
        <time>1970-01-01T00:00:00+00:00</time>
        <ele>1705.0</ele>
      </trkpt>
      <trkpt lat="46.626709" lon="12.208363">
        <time>1970-01-01T00:00:00+00:00</time>
        <ele>1709.0</ele>
      </trkpt>
      <trkpt lat="46.626601" lon="12.208899">
        <time>1970-01-01T00:00:00+00:00</time>
        <ele>1711.0</ele>
      </trkpt>
      <trkpt lat="46.626413" lon="12.209429">
        <time>1970-01-01T00:00:00+00:00</time>
        <ele>1715.0</ele>
      </trkpt>
      <trkpt lat="46.62646" lon="12.209625">
        <time>1970-01-01T00:00:00+00:00</time>
        <ele>1721.0</ele>
      </trkpt>
      <trkpt lat="46.626775" lon="12.20892">
        <time>1970-01-01T00:00:00+00:00</time>
        <ele>1721.0</ele>
      </trkpt>
      <trkpt lat="46.627157" lon="12.208679">
        <time>1970-01-01T00:00:00+00:00</time>
        <ele>1730.0</ele>
      </trkpt>
      <trkpt lat="46.627444" lon="12.2084">
        <time>1970-01-01T00:00:00+00:00</time>
        <ele>1735.0</ele>
      </trkpt>
      <trkpt lat="46.627639" lon="12.208315">
        <time>1970-01-01T00:00:00+00:00</time>
        <ele>1737.0</ele>
      </trkpt>
      <trkpt lat="46.628001" lon="12.208317">
        <time>1970-01-01T00:00:00+00:00</time>
        <ele>1746.0</ele>
      </trkpt>
      <trkpt lat="46.62815" lon="12.208054">
        <time>1970-01-01T00:00:00+00:00</time>
        <ele>1739.0</ele>
      </trkpt>
      <trkpt lat="46.628307" lon="12.207951">
        <time>1970-01-01T00:00:00+00:00</time>
        <ele>1740.0</ele>
      </trkpt>
      <trkpt lat="46.628928" lon="12.207759">
        <time>1970-01-01T00:00:00+00:00</time>
        <ele>1749.0</ele>
      </trkpt>
      <trkpt lat="46.628978" lon="12.207684">
        <time>1970-01-01T00:00:00+00:00</time>
        <ele>1750.0</ele>
      </trkpt>
      <trkpt lat="46.629069" lon="12.20714">
        <time>1970-01-01T00:00:00+00:00</time>
        <ele>1743.0</ele>
      </trkpt>
      <trkpt lat="46.629575" lon="12.206671">
        <time>1970-01-01T00:00:00+00:00</time>
        <ele>1762.0</ele>
      </trkpt>
      <trkpt lat="46.62985" lon="12.205907">
        <time>1970-01-01T00:00:00+00:00</time>
        <ele>1759.0</ele>
      </trkpt>
      <trkpt lat="46.630147" lon="12.205563">
        <time>1970-01-01T00:00:00+00:00</time>
        <ele>1763.0</ele>
      </trkpt>
      <trkpt lat="46.63031" lon="12.204999">
        <time>1970-01-01T00:00:00+00:00</time>
        <ele>1765.0</ele>
      </trkpt>
      <trkpt lat="46.630274" lon="12.204965">
        <time>1970-01-01T00:00:00+00:00</time>
        <ele>1763.0</ele>
      </trkpt>
      <trkpt lat="46.63109" lon="12.204186">
        <time>1970-01-01T00:00:00+00:00</time>
        <ele>1783.0</ele>
      </trkpt>
      <trkpt lat="46.63138" lon="12.203071">
        <time>1970-01-01T00:00:00+00:00</time>
        <ele>1784.0</ele>
      </trkpt>
      <trkpt lat="46.631306" lon="12.202538">
        <time>1970-01-01T00:00:00+00:00</time>
        <ele>1788.0</ele>
      </trkpt>
      <trkpt lat="46.631254" lon="12.20253">
        <time>1970-01-01T00:00:00+00:00</time>
        <ele>1787.0</ele>
      </trkpt>
      <trkpt lat="46.631299" lon="12.202191">
        <time>1970-01-01T00:00:00+00:00</time>
        <ele>1789.0</ele>
      </trkpt>
      <trkpt lat="46.631601" lon="12.201637">
        <time>1970-01-01T00:00:00+00:00</time>
        <ele>1799.0</ele>
      </trkpt>
      <trkpt lat="46.631665" lon="12.201274">
        <time>1970-01-01T00:00:00+00:00</time>
        <ele>1798.0</ele>
      </trkpt>
      <trkpt lat="46.631741" lon="12.201143">
        <time>1970-01-01T00:00:00+00:00</time>
        <ele>1799.0</ele>
      </trkpt>
      <trkpt lat="46.631865" lon="12.201075">
        <time>1970-01-01T00:00:00+00:00</time>
        <ele>1802.0</ele>
      </trkpt>
      <trkpt lat="46.631935" lon="12.201173">
        <time>1970-01-01T00:00:00+00:00</time>
        <ele>1805.0</ele>
      </trkpt>
      <trkpt lat="46.631854" lon="12.201449">
        <time>1970-01-01T00:00:00+00:00</time>
        <ele>1805.0</ele>
      </trkpt>
      <trkpt lat="46.631879" lon="12.201691">
        <time>1970-01-01T00:00:00+00:00</time>
        <ele>1808.0</ele>
      </trkpt>
      <trkpt lat="46.632129" lon="12.202137">
        <time>1970-01-01T00:00:00+00:00</time>
        <ele>1814.0</ele>
      </trkpt>
      <trkpt lat="46.63225" lon="12.20286">
        <time>1970-01-01T00:00:00+00:00</time>
        <ele>1817.0</ele>
      </trkpt>
      <trkpt lat="46.6322" lon="12.20357">
        <time>1970-01-01T00:00:00+00:00</time>
        <ele>1823.0</ele>
      </trkpt>
      <trkpt lat="46.632016" lon="12.204662">
        <time>1970-01-01T00:00:00+00:00</time>
        <ele>1830.0</ele>
      </trkpt>
      <trkpt lat="46.631677" lon="12.205494">
        <time>1970-01-01T00:00:00+00:00</time>
        <ele>1831.0</ele>
      </trkpt>
      <trkpt lat="46.631653" lon="12.206164">
        <time>1970-01-01T00:00:00+00:00</time>
        <ele>1834.0</ele>
      </trkpt>
      <trkpt lat="46.631678" lon="12.206261">
        <time>1970-01-01T00:00:00+00:00</time>
        <ele>1835.0</ele>
      </trkpt>
      <trkpt lat="46.631734" lon="12.206236">
        <time>1970-01-01T00:00:00+00:00</time>
        <ele>1837.0</ele>
      </trkpt>
      <trkpt lat="46.631899" lon="12.205615">
        <time>1970-01-01T00:00:00+00:00</time>
        <ele>1840.0</ele>
      </trkpt>
      <trkpt lat="46.632791" lon="12.204311">
        <time>1970-01-01T00:00:00+00:00</time>
        <ele>1859.0</ele>
      </trkpt>
      <trkpt lat="46.633184" lon="12.20401">
        <time>1970-01-01T00:00:00+00:00</time>
        <ele>1866.0</ele>
      </trkpt>
      <trkpt lat="46.63354" lon="12.203574">
        <time>1970-01-01T00:00:00+00:00</time>
        <ele>1872.0</ele>
      </trkpt>
      <trkpt lat="46.633756" lon="12.203168">
        <time>1970-01-01T00:00:00+00:00</time>
        <ele>1872.0</ele>
      </trkpt>
      <trkpt lat="46.634394" lon="12.202683">
        <time>1970-01-01T00:00:00+00:00</time>
        <ele>1874.0</ele>
      </trkpt>
      <trkpt lat="46.634585" lon="12.202619">
        <time>1970-01-01T00:00:00+00:00</time>
        <ele>1880.0</ele>
      </trkpt>
      <trkpt lat="46.634577" lon="12.202532">
        <time>1970-01-01T00:00:00+00:00</time>
        <ele>1877.0</ele>
      </trkpt>
      <trkpt lat="46.634726" lon="12.202516">
        <time>1970-01-01T00:00:00+00:00</time>
        <ele>1883.0</ele>
      </trkpt>
      <trkpt lat="46.635029" lon="12.202108">
        <time>1970-01-01T00:00:00+00:00</time>
        <ele>1886.0</ele>
      </trkpt>
      <trkpt lat="46.635174" lon="12.201516">
        <time>1970-01-01T00:00:00+00:00</time>
        <ele>1884.0</ele>
      </trkpt>
      <trkpt lat="46.635823" lon="12.200301">
        <time>1970-01-01T00:00:00+00:00</time>
        <ele>1897.0</ele>
      </trkpt>
      <trkpt lat="46.635943" lon="12.199856">
        <time>1970-01-01T00:00:00+00:00</time>
        <ele>1900.0</ele>
      </trkpt>
      <trkpt lat="46.635843" lon="12.199341">
        <time>1970-01-01T00:00:00+00:00</time>
        <ele>1898.0</ele>
      </trkpt>
      <trkpt lat="46.635694" lon="12.198974">
        <time>1970-01-01T00:00:00+00:00</time>
        <ele>1899.0</ele>
      </trkpt>
      <trkpt lat="46.635708" lon="12.19879">
        <time>1970-01-01T00:00:00+00:00</time>
        <ele>1899.0</ele>
      </trkpt>
      <trkpt lat="46.635776" lon="12.19871">
        <time>1970-01-01T00:00:00+00:00</time>
        <ele>1901.0</ele>
      </trkpt>
      <trkpt lat="46.636558" lon="12.198949">
        <time>1970-01-01T00:00:00+00:00</time>
        <ele>1924.0</ele>
      </trkpt>
      <trkpt lat="46.636792" lon="12.198857">
        <time>1970-01-01T00:00:00+00:00</time>
        <ele>1929.0</ele>
      </trkpt>
      <trkpt lat="46.637406" lon="12.198976">
        <time>1970-01-01T00:00:00+00:00</time>
        <ele>1947.0</ele>
      </trkpt>
      <trkpt lat="46.637534" lon="12.198806">
        <time>1970-01-01T00:00:00+00:00</time>
        <ele>1947.0</ele>
      </trkpt>
      <trkpt lat="46.637632" lon="12.198786">
        <time>1970-01-01T00:00:00+00:00</time>
        <ele>1948.0</ele>
      </trkpt>
      <trkpt lat="46.637875" lon="12.198559">
        <time>1970-01-01T00:00:00+00:00</time>
        <ele>1951.0</ele>
      </trkpt>
      <trkpt lat="46.638082" lon="12.198526">
        <time>1970-01-01T00:00:00+00:00</time>
        <ele>1956.0</ele>
      </trkpt>
      <trkpt lat="46.638239" lon="12.198142">
        <time>1970-01-01T00:00:00+00:00</time>
        <ele>1957.0</ele>
      </trkpt>
      <trkpt lat="46.638363" lon="12.19805">
        <time>1970-01-01T00:00:00+00:00</time>
        <ele>1960.0</ele>
      </trkpt>
      <trkpt lat="46.638375" lon="12.198113">
        <time>1970-01-01T00:00:00+00:00</time>
        <ele>1961.0</ele>
      </trkpt>
      <trkpt lat="46.63856" lon="12.197882">
        <time>1970-01-01T00:00:00+00:00</time>
        <ele>1963.0</ele>
      </trkpt>
      <trkpt lat="46.638944" lon="12.197594">
        <time>1970-01-01T00:00:00+00:00</time>
        <ele>1968.0</ele>
      </trkpt>
      <trkpt lat="46.63917" lon="12.197561">
        <time>1970-01-01T00:00:00+00:00</time>
        <ele>1973.0</ele>
      </trkpt>
      <trkpt lat="46.639344" lon="12.197732">
        <time>1970-01-01T00:00:00+00:00</time>
        <ele>1978.0</ele>
      </trkpt>
      <trkpt lat="46.639691" lon="12.197834">
        <time>1970-01-01T00:00:00+00:00</time>
        <ele>1985.0</ele>
      </trkpt>
      <trkpt lat="46.640198" lon="12.197596">
        <time>1970-01-01T00:00:00+00:00</time>
        <ele>1989.0</ele>
      </trkpt>
      <trkpt lat="46.640583" lon="12.197033">
        <time>1970-01-01T00:00:00+00:00</time>
        <ele>1991.0</ele>
      </trkpt>
      <trkpt lat="46.640663" lon="12.196778">
        <time>1970-01-01T00:00:00+00:00</time>
        <ele>1992.0</ele>
      </trkpt>
      <trkpt lat="46.640766" lon="12.196026">
        <time>1970-01-01T00:00:00+00:00</time>
        <ele>1988.0</ele>
      </trkpt>
      <trkpt lat="46.640834" lon="12.195886">
        <time>1970-01-01T00:00:00+00:00</time>
        <ele>1989.0</ele>
      </trkpt>
      <trkpt lat="46.640889" lon="12.1958">
        <time>1970-01-01T00:00:00+00:00</time>
        <ele>1990.0</ele>
      </trkpt>
      <trkpt lat="46.641167" lon="12.195827">
        <time>1970-01-01T00:00:00+00:00</time>
        <ele>2005.0</ele>
      </trkpt>
      <trkpt lat="46.641264" lon="12.195528">
        <time>1970-01-01T00:00:00+00:00</time>
        <ele>2004.0</ele>
      </trkpt>
      <trkpt lat="46.641387" lon="12.195382">
        <time>1970-01-01T00:00:00+00:00</time>
        <ele>2009.0</ele>
      </trkpt>
      <trkpt lat="46.641524" lon="12.195515">
        <time>1970-01-01T00:00:00+00:00</time>
        <ele>2015.0</ele>
      </trkpt>
      <trkpt lat="46.641698" lon="12.195572">
        <time>1970-01-01T00:00:00+00:00</time>
        <ele>2022.0</ele>
      </trkpt>
      <trkpt lat="46.641872" lon="12.195514">
        <time>1970-01-01T00:00:00+00:00</time>
        <ele>2028.0</ele>
      </trkpt>
      <trkpt lat="46.641923" lon="12.195563">
        <time>1970-01-01T00:00:00+00:00</time>
        <ele>2030.0</ele>
      </trkpt>
      <trkpt lat="46.641904" lon="12.195514">
        <time>1970-01-01T00:00:00+00:00</time>
        <ele>2029.0</ele>
      </trkpt>
      <trkpt lat="46.642953" lon="12.195556">
        <time>1970-01-01T00:00:00+00:00</time>
        <ele>2041.0</ele>
      </trkpt>
      <trkpt lat="46.642407" lon="12.196149">
        <time>1970-01-01T00:00:00+00:00</time>
        <ele>2048.0</ele>
      </trkpt>
      <trkpt lat="46.642129" lon="12.196273">
        <time>1970-01-01T00:00:00+00:00</time>
        <ele>2049.0</ele>
      </trkpt>
      <trkpt lat="46.642051" lon="12.196442">
        <time>1970-01-01T00:00:00+00:00</time>
        <ele>2053.0</ele>
      </trkpt>
      <trkpt lat="46.642047" lon="12.19669">
        <time>1970-01-01T00:00:00+00:00</time>
        <ele>2059.0</ele>
      </trkpt>
      <trkpt lat="46.641975" lon="12.196894">
        <time>1970-01-01T00:00:00+00:00</time>
        <ele>2062.0</ele>
      </trkpt>
      <trkpt lat="46.642041" lon="12.197199">
        <time>1970-01-01T00:00:00+00:00</time>
        <ele>2068.0</ele>
      </trkpt>
      <trkpt lat="46.641998" lon="12.197205">
        <time>1970-01-01T00:00:00+00:00</time>
        <ele>2068.0</ele>
      </trkpt>
      <trkpt lat="46.64201" lon="12.197388">
        <time>1970-01-01T00:00:00+00:00</time>
        <ele>2071.0</ele>
      </trkpt>
      <trkpt lat="46.641901" lon="12.197767">
        <time>1970-01-01T00:00:00+00:00</time>
        <ele>2075.0</ele>
      </trkpt>
      <trkpt lat="46.641754" lon="12.198006">
        <time>1970-01-01T00:00:00+00:00</time>
        <ele>2071.0</ele>
      </trkpt>
      <trkpt lat="46.641751" lon="12.198795">
        <time>1970-01-01T00:00:00+00:00</time>
        <ele>2092.0</ele>
      </trkpt>
      <trkpt lat="46.641619" lon="12.199159">
        <time>1970-01-01T00:00:00+00:00</time>
        <ele>2093.0</ele>
      </trkpt>
      <trkpt lat="46.641513" lon="12.199231">
        <time>1970-01-01T00:00:00+00:00</time>
        <ele>2087.0</ele>
      </trkpt>
      <trkpt lat="46.641538" lon="12.199527">
        <time>1970-01-01T00:00:00+00:00</time>
        <ele>2097.0</ele>
      </trkpt>
      <trkpt lat="46.641398" lon="12.199937">
        <time>1970-01-01T00:00:00+00:00</time>
        <ele>2096.0</ele>
      </trkpt>
      <trkpt lat="46.641405" lon="12.200362">
        <time>1970-01-01T00:00:00+00:00</time>
        <ele>2109.0</ele>
      </trkpt>
      <trkpt lat="46.641326" lon="12.200349">
        <time>1970-01-01T00:00:00+00:00</time>
        <ele>2103.0</ele>
      </trkpt>
      <trkpt lat="46.641207" lon="12.2006">
        <time>1970-01-01T00:00:00+00:00</time>
        <ele>2102.0</ele>
      </trkpt>
      <trkpt lat="46.641147" lon="12.200958">
        <time>1970-01-01T00:00:00+00:00</time>
        <ele>2107.0</ele>
      </trkpt>
      <trkpt lat="46.640935" lon="12.201209">
        <time>1970-01-01T00:00:00+00:00</time>
        <ele>2100.0</ele>
      </trkpt>
      <trkpt lat="46.640901" lon="12.20155">
        <time>1970-01-01T00:00:00+00:00</time>
        <ele>2110.0</ele>
      </trkpt>
      <trkpt lat="46.64085" lon="12.201627">
        <time>1970-01-01T00:00:00+00:00</time>
        <ele>2110.0</ele>
      </trkpt>
      <trkpt lat="46.64083" lon="12.201915">
        <time>1970-01-01T00:00:00+00:00</time>
        <ele>2118.0</ele>
      </trkpt>
      <trkpt lat="46.640881" lon="12.20185">
        <time>1970-01-01T00:00:00+00:00</time>
        <ele>2118.0</ele>
      </trkpt>
      <trkpt lat="46.640878" lon="12.202036">
        <time>1970-01-01T00:00:00+00:00</time>
        <ele>2124.0</ele>
      </trkpt>
      <trkpt lat="46.640936" lon="12.201985">
        <time>1970-01-01T00:00:00+00:00</time>
        <ele>2125.0</ele>
      </trkpt>
      <trkpt lat="46.640953" lon="12.202092">
        <time>1970-01-01T00:00:00+00:00</time>
        <ele>2129.0</ele>
      </trkpt>
      <trkpt lat="46.640941" lon="12.202309">
        <time>1970-01-01T00:00:00+00:00</time>
        <ele>2132.0</ele>
      </trkpt>
      <trkpt lat="46.640851" lon="12.202575">
        <time>1970-01-01T00:00:00+00:00</time>
        <ele>2134.0</ele>
      </trkpt>
      <trkpt lat="46.640847" lon="12.202523">
        <time>1970-01-01T00:00:00+00:00</time>
        <ele>2133.0</ele>
      </trkpt>
      <trkpt lat="46.640861" lon="12.202471">
        <time>1970-01-01T00:00:00+00:00</time>
        <ele>2132.0</ele>
      </trkpt>
      <trkpt lat="46.640864" lon="12.202807">
        <time>1970-01-01T00:00:00+00:00</time>
        <ele>2139.0</ele>
      </trkpt>
      <trkpt lat="46.640924" lon="12.203139">
        <time>1970-01-01T00:00:00+00:00</time>
        <ele>2146.0</ele>
      </trkpt>
      <trkpt lat="46.641092" lon="12.203475">
        <time>1970-01-01T00:00:00+00:00</time>
        <ele>2156.0</ele>
      </trkpt>
      <trkpt lat="46.641563" lon="12.203901">
        <time>1970-01-01T00:00:00+00:00</time>
        <ele>2162.0</ele>
      </trkpt>
      <trkpt lat="46.6418" lon="12.204209">
        <time>1970-01-01T00:00:00+00:00</time>
        <ele>2165.0</ele>
      </trkpt>
      <trkpt lat="46.642108" lon="12.204304">
        <time>1970-01-01T00:00:00+00:00</time>
        <ele>2170.0</ele>
      </trkpt>
      <trkpt lat="46.642238" lon="12.204212">
        <time>1970-01-01T00:00:00+00:00</time>
        <ele>2173.0</ele>
      </trkpt>
      <trkpt lat="46.642422" lon="12.20437">
        <time>1970-01-01T00:00:00+00:00</time>
        <ele>2179.0</ele>
      </trkpt>
      <trkpt lat="46.642919" lon="12.204513">
        <time>1970-01-01T00:00:00+00:00</time>
        <ele>2189.0</ele>
      </trkpt>
      <trkpt lat="46.643179" lon="12.204737">
        <time>1970-01-01T00:00:00+00:00</time>
        <ele>2196.0</ele>
      </trkpt>
      <trkpt lat="46.643638" lon="12.204752">
        <time>1970-01-01T00:00:00+00:00</time>
        <ele>2200.0</ele>
      </trkpt>
      <trkpt lat="46.643516" lon="12.205378">
        <time>1970-01-01T00:00:00+00:00</time>
        <ele>2208.0</ele>
      </trkpt>
      <trkpt lat="46.643603" lon="12.206189">
        <time>1970-01-01T00:00:00+00:00</time>
        <ele>2216.0</ele>
      </trkpt>
      <trkpt lat="46.643295" lon="12.206918">
        <time>1970-01-01T00:00:00+00:00</time>
        <ele>2231.0</ele>
      </trkpt>
      <trkpt lat="46.643297" lon="12.207596">
        <time>1970-01-01T00:00:00+00:00</time>
        <ele>2238.0</ele>
      </trkpt>
      <trkpt lat="46.643022" lon="12.208375">
        <time>1970-01-01T00:00:00+00:00</time>
        <ele>2249.0</ele>
      </trkpt>
      <trkpt lat="46.642974" lon="12.20869">
        <time>1970-01-01T00:00:00+00:00</time>
        <ele>2253.0</ele>
      </trkpt>
      <trkpt lat="46.64308" lon="12.208934">
        <time>1970-01-01T00:00:00+00:00</time>
        <ele>2254.0</ele>
      </trkpt>
      <trkpt lat="46.643346" lon="12.209243">
        <time>1970-01-01T00:00:00+00:00</time>
        <ele>2256.0</ele>
      </trkpt>
      <trkpt lat="46.643549" lon="12.210233">
        <time>1970-01-01T00:00:00+00:00</time>
        <ele>2265.0</ele>
      </trkpt>
      <trkpt lat="46.643555" lon="12.210432">
        <time>1970-01-01T00:00:00+00:00</time>
        <ele>2266.0</ele>
      </trkpt>
      <trkpt lat="46.643371" lon="12.211472">
        <time>1970-01-01T00:00:00+00:00</time>
        <ele>2275.0</ele>
      </trkpt>
      <trkpt lat="46.643642" lon="12.212068">
        <time>1970-01-01T00:00:00+00:00</time>
        <ele>2283.0</ele>
      </trkpt>
      <trkpt lat="46.643847" lon="12.212302">
        <time>1970-01-01T00:00:00+00:00</time>
        <ele>2289.0</ele>
      </trkpt>
      <trkpt lat="46.644066" lon="12.212415">
        <time>1970-01-01T00:00:00+00:00</time>
        <ele>2292.0</ele>
      </trkpt>
      <trkpt lat="46.644042" lon="12.212658">
        <time>1970-01-01T00:00:00+00:00</time>
        <ele>2286.0</ele>
      </trkpt>
      <trkpt lat="46.644158" lon="12.212744">
        <time>1970-01-01T00:00:00+00:00</time>
        <ele>2284.0</ele>
      </trkpt>
      <trkpt lat="46.64415" lon="12.212822">
        <time>1970-01-01T00:00:00+00:00</time>
        <ele>2282.0</ele>
      </trkpt>
      <trkpt lat="46.644162" lon="12.212688">
        <time>1970-01-01T00:00:00+00:00</time>
        <ele>2286.0</ele>
      </trkpt>
      <trkpt lat="46.644053" lon="12.212709">
        <time>1970-01-01T00:00:00+00:00</time>
        <ele>2285.0</ele>
      </trkpt>
      <trkpt lat="46.644042" lon="12.212604">
        <time>1970-01-01T00:00:00+00:00</time>
        <ele>2288.0</ele>
      </trkpt>
      <trkpt lat="46.643947" lon="12.212588">
        <time>1970-01-01T00:00:00+00:00</time>
        <ele>2287.0</ele>
      </trkpt>
      <trkpt lat="46.643976" lon="12.21232">
        <time>1970-01-01T00:00:00+00:00</time>
        <ele>2291.0</ele>
      </trkpt>
      <trkpt lat="46.64357" lon="12.212098">
        <time>1970-01-01T00:00:00+00:00</time>
        <ele>2282.0</ele>
      </trkpt>
      <trkpt lat="46.643585" lon="12.211986">
        <time>1970-01-01T00:00:00+00:00</time>
        <ele>2281.0</ele>
      </trkpt>
      <trkpt lat="46.643369" lon="12.211625">
        <time>1970-01-01T00:00:00+00:00</time>
        <ele>2276.0</ele>
      </trkpt>
      <trkpt lat="46.643017" lon="12.210597">
        <time>1970-01-01T00:00:00+00:00</time>
        <ele>2270.0</ele>
      </trkpt>
      <trkpt lat="46.642954" lon="12.209823">
        <time>1970-01-01T00:00:00+00:00</time>
        <ele>2267.0</ele>
      </trkpt>
      <trkpt lat="46.642749" lon="12.209549">
        <time>1970-01-01T00:00:00+00:00</time>
        <ele>2265.0</ele>
      </trkpt>
      <trkpt lat="46.642542" lon="12.209126">
        <time>1970-01-01T00:00:00+00:00</time>
        <ele>2263.0</ele>
      </trkpt>
      <trkpt lat="46.642573" lon="12.208934">
        <time>1970-01-01T00:00:00+00:00</time>
        <ele>2261.0</ele>
      </trkpt>
      <trkpt lat="46.642825" lon="12.208391">
        <time>1970-01-01T00:00:00+00:00</time>
        <ele>2253.0</ele>
      </trkpt>
      <trkpt lat="46.642944" lon="12.20744">
        <time>1970-01-01T00:00:00+00:00</time>
        <ele>2245.0</ele>
      </trkpt>
      <trkpt lat="46.643015" lon="12.207414">
        <time>1970-01-01T00:00:00+00:00</time>
        <ele>2244.0</ele>
      </trkpt>
      <trkpt lat="46.643038" lon="12.207274">
        <time>1970-01-01T00:00:00+00:00</time>
        <ele>2241.0</ele>
      </trkpt>
      <trkpt lat="46.643248" lon="12.207322">
        <time>1970-01-01T00:00:00+00:00</time>
        <ele>2237.0</ele>
      </trkpt>
      <trkpt lat="46.643166" lon="12.206926">
        <time>1970-01-01T00:00:00+00:00</time>
        <ele>2234.0</ele>
      </trkpt>
      <trkpt lat="46.643363" lon="12.206514">
        <time>1970-01-01T00:00:00+00:00</time>
        <ele>2224.0</ele>
      </trkpt>
      <trkpt lat="46.643462" lon="12.206451">
        <time>1970-01-01T00:00:00+00:00</time>
        <ele>2222.0</ele>
      </trkpt>
      <trkpt lat="46.643607" lon="12.20617">
        <time>1970-01-01T00:00:00+00:00</time>
        <ele>2215.0</ele>
      </trkpt>
      <trkpt lat="46.643475" lon="12.205431">
        <time>1970-01-01T00:00:00+00:00</time>
        <ele>2208.0</ele>
      </trkpt>
      <trkpt lat="46.643674" lon="12.204372">
        <time>1970-01-01T00:00:00+00:00</time>
        <ele>2197.0</ele>
      </trkpt>
      <trkpt lat="46.643564" lon="12.204062">
        <time>1970-01-01T00:00:00+00:00</time>
        <ele>2197.0</ele>
      </trkpt>
      <trkpt lat="46.643203" lon="12.203611">
        <time>1970-01-01T00:00:00+00:00</time>
        <ele>2198.0</ele>
      </trkpt>
      <trkpt lat="46.643047" lon="12.203299">
        <time>1970-01-01T00:00:00+00:00</time>
        <ele>2199.0</ele>
      </trkpt>
      <trkpt lat="46.64253" lon="12.202922">
        <time>1970-01-01T00:00:00+00:00</time>
        <ele>2190.0</ele>
      </trkpt>
      <trkpt lat="46.642392" lon="12.202549">
        <time>1970-01-01T00:00:00+00:00</time>
        <ele>2190.0</ele>
      </trkpt>
      <trkpt lat="46.642382" lon="12.202315">
        <time>1970-01-01T00:00:00+00:00</time>
        <ele>2191.0</ele>
      </trkpt>
      <trkpt lat="46.642857" lon="12.200821">
        <time>1970-01-01T00:00:00+00:00</time>
        <ele>2189.0</ele>
      </trkpt>
      <trkpt lat="46.643193" lon="12.200468">
        <time>1970-01-01T00:00:00+00:00</time>
        <ele>2187.0</ele>
      </trkpt>
      <trkpt lat="46.643318" lon="12.20045">
        <time>1970-01-01T00:00:00+00:00</time>
        <ele>2188.0</ele>
      </trkpt>
      <trkpt lat="46.643293" lon="12.20034">
        <time>1970-01-01T00:00:00+00:00</time>
        <ele>2185.0</ele>
      </trkpt>
      <trkpt lat="46.643153" lon="12.200286">
        <time>1970-01-01T00:00:00+00:00</time>
        <ele>2182.0</ele>
      </trkpt>
      <trkpt lat="46.643258" lon="12.200226">
        <time>1970-01-01T00:00:00+00:00</time>
        <ele>2180.0</ele>
      </trkpt>
      <trkpt lat="46.64293" lon="12.200166">
        <time>1970-01-01T00:00:00+00:00</time>
        <ele>2177.0</ele>
      </trkpt>
      <trkpt lat="46.64288" lon="12.200087">
        <time>1970-01-01T00:00:00+00:00</time>
        <ele>2175.0</ele>
      </trkpt>
      <trkpt lat="46.643084" lon="12.199957">
        <time>1970-01-01T00:00:00+00:00</time>
        <ele>2172.0</ele>
      </trkpt>
      <trkpt lat="46.643883" lon="12.199806">
        <time>1970-01-01T00:00:00+00:00</time>
        <ele>2163.0</ele>
      </trkpt>
      <trkpt lat="46.644441" lon="12.199237">
        <time>1970-01-01T00:00:00+00:00</time>
        <ele>2147.0</ele>
      </trkpt>
      <trkpt lat="46.645278" lon="12.198854">
        <time>1970-01-01T00:00:00+00:00</time>
        <ele>2145.0</ele>
      </trkpt>
      <trkpt lat="46.645895" lon="12.197663">
        <time>1970-01-01T00:00:00+00:00</time>
        <ele>2123.0</ele>
      </trkpt>
      <trkpt lat="46.645887" lon="12.197545">
        <time>1970-01-01T00:00:00+00:00</time>
        <ele>2121.0</ele>
      </trkpt>
      <trkpt lat="46.64572" lon="12.197216">
        <time>1970-01-01T00:00:00+00:00</time>
        <ele>2116.0</ele>
      </trkpt>
      <trkpt lat="46.645737" lon="12.197138">
        <time>1970-01-01T00:00:00+00:00</time>
        <ele>2114.0</ele>
      </trkpt>
      <trkpt lat="46.646118" lon="12.197156">
        <time>1970-01-01T00:00:00+00:00</time>
        <ele>2114.0</ele>
      </trkpt>
      <trkpt lat="46.646246" lon="12.197091">
        <time>1970-01-01T00:00:00+00:00</time>
        <ele>2115.0</ele>
      </trkpt>
      <trkpt lat="46.646377" lon="12.196661">
        <time>1970-01-01T00:00:00+00:00</time>
        <ele>2109.0</ele>
      </trkpt>
      <trkpt lat="46.647251" lon="12.195114">
        <time>1970-01-01T00:00:00+00:00</time>
        <ele>2087.0</ele>
      </trkpt>
      <trkpt lat="46.64707" lon="12.193418">
        <time>1970-01-01T00:00:00+00:00</time>
        <ele>2067.0</ele>
      </trkpt>
      <trkpt lat="46.646935" lon="12.193519">
        <time>1970-01-01T00:00:00+00:00</time>
        <ele>2066.0</ele>
      </trkpt>
      <trkpt lat="46.646636" lon="12.193559">
        <time>1970-01-01T00:00:00+00:00</time>
        <ele>2061.0</ele>
      </trkpt>
      <trkpt lat="46.646316" lon="12.193887">
        <time>1970-01-01T00:00:00+00:00</time>
        <ele>2057.0</ele>
      </trkpt>
      <trkpt lat="46.645808" lon="12.194122">
        <time>1970-01-01T00:00:00+00:00</time>
        <ele>2056.0</ele>
      </trkpt>
      <trkpt lat="46.6456" lon="12.194329">
        <time>1970-01-01T00:00:00+00:00</time>
        <ele>2059.0</ele>
      </trkpt>
      <trkpt lat="46.645115" lon="12.194503">
        <time>1970-01-01T00:00:00+00:00</time>
        <ele>2052.0</ele>
      </trkpt>
      <trkpt lat="46.644471" lon="12.194888">
        <time>1970-01-01T00:00:00+00:00</time>
        <ele>2048.0</ele>
      </trkpt>
      <trkpt lat="46.64399" lon="12.194888">
        <time>1970-01-01T00:00:00+00:00</time>
        <ele>2038.0</ele>
      </trkpt>
      <trkpt lat="46.643001" lon="12.195519">
        <time>1970-01-01T00:00:00+00:00</time>
        <ele>2041.0</ele>
      </trkpt>
      <trkpt lat="46.642825" lon="12.195568">
        <time>1970-01-01T00:00:00+00:00</time>
        <ele>2039.0</ele>
      </trkpt>
      <trkpt lat="46.642058" lon="12.195531">
        <time>1970-01-01T00:00:00+00:00</time>
        <ele>2033.0</ele>
      </trkpt>
      <trkpt lat="46.642098" lon="12.195531">
        <time>1970-01-01T00:00:00+00:00</time>
        <ele>2033.0</ele>
      </trkpt>
      <trkpt lat="46.642061" lon="12.195347">
        <time>1970-01-01T00:00:00+00:00</time>
        <ele>2030.0</ele>
      </trkpt>
      <trkpt lat="46.64226" lon="12.195164">
        <time>1970-01-01T00:00:00+00:00</time>
        <ele>2027.0</ele>
      </trkpt>
      <trkpt lat="46.642702" lon="12.195101">
        <time>1970-01-01T00:00:00+00:00</time>
        <ele>2026.0</ele>
      </trkpt>
      <trkpt lat="46.642647" lon="12.194951">
        <time>1970-01-01T00:00:00+00:00</time>
        <ele>2021.0</ele>
      </trkpt>
      <trkpt lat="46.642771" lon="12.194889">
        <time>1970-01-01T00:00:00+00:00</time>
        <ele>2020.0</ele>
      </trkpt>
      <trkpt lat="46.642691" lon="12.194827">
        <time>1970-01-01T00:00:00+00:00</time>
        <ele>2018.0</ele>
      </trkpt>
      <trkpt lat="46.642545" lon="12.194373">
        <time>1970-01-01T00:00:00+00:00</time>
        <ele>2009.0</ele>
      </trkpt>
      <trkpt lat="46.641893" lon="12.194246">
        <time>1970-01-01T00:00:00+00:00</time>
        <ele>2005.0</ele>
      </trkpt>
      <trkpt lat="46.641407" lon="12.194308">
        <time>1970-01-01T00:00:00+00:00</time>
        <ele>1998.0</ele>
      </trkpt>
      <trkpt lat="46.641222" lon="12.194522">
        <time>1970-01-01T00:00:00+00:00</time>
        <ele>1992.0</ele>
      </trkpt>
      <trkpt lat="46.641011" lon="12.195614">
        <time>1970-01-01T00:00:00+00:00</time>
        <ele>1993.0</ele>
      </trkpt>
      <trkpt lat="46.640738" lon="12.196163">
        <time>1970-01-01T00:00:00+00:00</time>
        <ele>1988.0</ele>
      </trkpt>
      <trkpt lat="46.640663" lon="12.19684">
        <time>1970-01-01T00:00:00+00:00</time>
        <ele>1992.0</ele>
      </trkpt>
      <trkpt lat="46.640361" lon="12.197474">
        <time>1970-01-01T00:00:00+00:00</time>
        <ele>1990.0</ele>
      </trkpt>
      <trkpt lat="46.640217" lon="12.19763">
        <time>1970-01-01T00:00:00+00:00</time>
        <ele>1990.0</ele>
      </trkpt>
      <trkpt lat="46.639701" lon="12.197841">
        <time>1970-01-01T00:00:00+00:00</time>
        <ele>1985.0</ele>
      </trkpt>
      <trkpt lat="46.639275" lon="12.197754">
        <time>1970-01-01T00:00:00+00:00</time>
        <ele>1976.0</ele>
      </trkpt>
      <trkpt lat="46.639113" lon="12.197788">
        <time>1970-01-01T00:00:00+00:00</time>
        <ele>1974.0</ele>
      </trkpt>
      <trkpt lat="46.638831" lon="12.198096">
        <time>1970-01-01T00:00:00+00:00</time>
        <ele>1970.0</ele>
      </trkpt>
      <trkpt lat="46.638485" lon="12.198806">
        <time>1970-01-01T00:00:00+00:00</time>
        <ele>1970.0</ele>
      </trkpt>
      <trkpt lat="46.638362" lon="12.198822">
        <time>1970-01-01T00:00:00+00:00</time>
        <ele>1968.0</ele>
      </trkpt>
      <trkpt lat="46.638272" lon="12.198704">
        <time>1970-01-01T00:00:00+00:00</time>
        <ele>1964.0</ele>
      </trkpt>
      <trkpt lat="46.63823" lon="12.198394">
        <time>1970-01-01T00:00:00+00:00</time>
        <ele>1959.0</ele>
      </trkpt>
      <trkpt lat="46.638289" lon="12.197969">
        <time>1970-01-01T00:00:00+00:00</time>
        <ele>1957.0</ele>
      </trkpt>
      <trkpt lat="46.63863" lon="12.197319">
        <time>1970-01-01T00:00:00+00:00</time>
        <ele>1957.0</ele>
      </trkpt>
      <trkpt lat="46.639173" lon="12.196504">
        <time>1970-01-01T00:00:00+00:00</time>
        <ele>1954.0</ele>
      </trkpt>
      <trkpt lat="46.639262" lon="12.196285">
        <time>1970-01-01T00:00:00+00:00</time>
        <ele>1950.0</ele>
      </trkpt>
      <trkpt lat="46.639234" lon="12.196131">
        <time>1970-01-01T00:00:00+00:00</time>
        <ele>1948.0</ele>
      </trkpt>
      <trkpt lat="46.639015" lon="12.196088">
        <time>1970-01-01T00:00:00+00:00</time>
        <ele>1946.0</ele>
      </trkpt>
      <trkpt lat="46.638676" lon="12.196192">
        <time>1970-01-01T00:00:00+00:00</time>
        <ele>1942.0</ele>
      </trkpt>
      <trkpt lat="46.637998" lon="12.196639">
        <time>1970-01-01T00:00:00+00:00</time>
        <ele>1936.0</ele>
      </trkpt>
      <trkpt lat="46.63759" lon="12.196747">
        <time>1970-01-01T00:00:00+00:00</time>
        <ele>1930.0</ele>
      </trkpt>
      <trkpt lat="46.637178" lon="12.197288">
        <time>1970-01-01T00:00:00+00:00</time>
        <ele>1924.0</ele>
      </trkpt>
      <trkpt lat="46.636896" lon="12.1975">
        <time>1970-01-01T00:00:00+00:00</time>
        <ele>1920.0</ele>
      </trkpt>
      <trkpt lat="46.63653" lon="12.198269">
        <time>1970-01-01T00:00:00+00:00</time>
        <ele>1915.0</ele>
      </trkpt>
      <trkpt lat="46.635922" lon="12.198557">
        <time>1970-01-01T00:00:00+00:00</time>
        <ele>1904.0</ele>
      </trkpt>
      <trkpt lat="46.635715" lon="12.19875">
        <time>1970-01-01T00:00:00+00:00</time>
        <ele>1900.0</ele>
      </trkpt>
      <trkpt lat="46.63568" lon="12.198962">
        <time>1970-01-01T00:00:00+00:00</time>
        <ele>1898.0</ele>
      </trkpt>
      <trkpt lat="46.635854" lon="12.199411">
        <time>1970-01-01T00:00:00+00:00</time>
        <ele>1898.0</ele>
      </trkpt>
      <trkpt lat="46.635949" lon="12.199809">
        <time>1970-01-01T00:00:00+00:00</time>
        <ele>1900.0</ele>
      </trkpt>
      <trkpt lat="46.635941" lon="12.199965">
        <time>1970-01-01T00:00:00+00:00</time>
        <ele>1900.0</ele>
      </trkpt>
      <trkpt lat="46.635837" lon="12.200316">
        <time>1970-01-01T00:00:00+00:00</time>
        <ele>1898.0</ele>
      </trkpt>
      <trkpt lat="46.63554" lon="12.20093">
        <time>1970-01-01T00:00:00+00:00</time>
        <ele>1891.0</ele>
      </trkpt>
      <trkpt lat="46.635143" lon="12.201595">
        <time>1970-01-01T00:00:00+00:00</time>
        <ele>1883.0</ele>
      </trkpt>
      <trkpt lat="46.634977" lon="12.202195">
        <time>1970-01-01T00:00:00+00:00</time>
        <ele>1885.0</ele>
      </trkpt>
      <trkpt lat="46.634685" lon="12.202595">
        <time>1970-01-01T00:00:00+00:00</time>
        <ele>1883.0</ele>
      </trkpt>
      <trkpt lat="46.634356" lon="12.202763">
        <time>1970-01-01T00:00:00+00:00</time>
        <ele>1874.0</ele>
      </trkpt>
      <trkpt lat="46.633728" lon="12.203237">
        <time>1970-01-01T00:00:00+00:00</time>
        <ele>1873.0</ele>
      </trkpt>
      <trkpt lat="46.633525" lon="12.203643">
        <time>1970-01-01T00:00:00+00:00</time>
        <ele>1874.0</ele>
      </trkpt>
      <trkpt lat="46.633121" lon="12.204104">
        <time>1970-01-01T00:00:00+00:00</time>
        <ele>1866.0</ele>
      </trkpt>
      <trkpt lat="46.63271" lon="12.204452">
        <time>1970-01-01T00:00:00+00:00</time>
        <ele>1859.0</ele>
      </trkpt>
      <trkpt lat="46.631879" lon="12.205599">
        <time>1970-01-01T00:00:00+00:00</time>
        <ele>1839.0</ele>
      </trkpt>
      <trkpt lat="46.631756" lon="12.206123">
        <time>1970-01-01T00:00:00+00:00</time>
        <ele>1837.0</ele>
      </trkpt>
      <trkpt lat="46.631661" lon="12.206267">
        <time>1970-01-01T00:00:00+00:00</time>
        <ele>1835.0</ele>
      </trkpt>
      <trkpt lat="46.631702" lon="12.205427">
        <time>1970-01-01T00:00:00+00:00</time>
        <ele>1831.0</ele>
      </trkpt>
      <trkpt lat="46.631996" lon="12.204786">
        <time>1970-01-01T00:00:00+00:00</time>
        <ele>1832.0</ele>
      </trkpt>
      <trkpt lat="46.632206" lon="12.203138">
        <time>1970-01-01T00:00:00+00:00</time>
        <ele>1818.0</ele>
      </trkpt>
      <trkpt lat="46.632094" lon="12.202247">
        <time>1970-01-01T00:00:00+00:00</time>
        <ele>1814.0</ele>
      </trkpt>
      <trkpt lat="46.631826" lon="12.201599">
        <time>1970-01-01T00:00:00+00:00</time>
        <ele>1806.0</ele>
      </trkpt>
      <trkpt lat="46.63187" lon="12.201231">
        <time>1970-01-01T00:00:00+00:00</time>
        <ele>1804.0</ele>
      </trkpt>
      <trkpt lat="46.631752" lon="12.201154">
        <time>1970-01-01T00:00:00+00:00</time>
        <ele>1800.0</ele>
      </trkpt>
      <trkpt lat="46.631658" lon="12.201302">
        <time>1970-01-01T00:00:00+00:00</time>
        <ele>1798.0</ele>
      </trkpt>
      <trkpt lat="46.631614" lon="12.201657">
        <time>1970-01-01T00:00:00+00:00</time>
        <ele>1799.0</ele>
      </trkpt>
      <trkpt lat="46.631333" lon="12.202257">
        <time>1970-01-01T00:00:00+00:00</time>
        <ele>1790.0</ele>
      </trkpt>
      <trkpt lat="46.631303" lon="12.202579">
        <time>1970-01-01T00:00:00+00:00</time>
        <ele>1787.0</ele>
      </trkpt>
      <trkpt lat="46.631377" lon="12.203145">
        <time>1970-01-01T00:00:00+00:00</time>
        <ele>1784.0</ele>
      </trkpt>
      <trkpt lat="46.63116" lon="12.204101">
        <time>1970-01-01T00:00:00+00:00</time>
        <ele>1783.0</ele>
      </trkpt>
      <trkpt lat="46.63103" lon="12.204319">
        <time>1970-01-01T00:00:00+00:00</time>
        <ele>1782.0</ele>
      </trkpt>
      <trkpt lat="46.630285" lon="12.205003">
        <time>1970-01-01T00:00:00+00:00</time>
        <ele>1764.0</ele>
      </trkpt>
      <trkpt lat="46.63017" lon="12.205509">
        <time>1970-01-01T00:00:00+00:00</time>
        <ele>1763.0</ele>
      </trkpt>
      <trkpt lat="46.629825" lon="12.206001">
        <time>1970-01-01T00:00:00+00:00</time>
        <ele>1759.0</ele>
      </trkpt>
      <trkpt lat="46.629604" lon="12.206661">
        <time>1970-01-01T00:00:00+00:00</time>
        <ele>1763.0</ele>
      </trkpt>
      <trkpt lat="46.629053" lon="12.207187">
        <time>1970-01-01T00:00:00+00:00</time>
        <ele>1743.0</ele>
      </trkpt>
      <trkpt lat="46.628988" lon="12.207315">
        <time>1970-01-01T00:00:00+00:00</time>
        <ele>1742.0</ele>
      </trkpt>
      <trkpt lat="46.628926" lon="12.207796">
        <time>1970-01-01T00:00:00+00:00</time>
        <ele>1750.0</ele>
      </trkpt>
      <trkpt lat="46.628831" lon="12.207879">
        <time>1970-01-01T00:00:00+00:00</time>
        <ele>1750.0</ele>
      </trkpt>
      <trkpt lat="46.628169" lon="12.208084">
        <time>1970-01-01T00:00:00+00:00</time>
        <ele>1741.0</ele>
      </trkpt>
      <trkpt lat="46.627947" lon="12.208355">
        <time>1970-01-01T00:00:00+00:00</time>
        <ele>1747.0</ele>
      </trkpt>
      <trkpt lat="46.627519" lon="12.208403">
        <time>1970-01-01T00:00:00+00:00</time>
        <ele>1737.0</ele>
      </trkpt>
      <trkpt lat="46.627326" lon="12.208525">
        <time>1970-01-01T00:00:00+00:00</time>
        <ele>1733.0</ele>
      </trkpt>
      <trkpt lat="46.626721" lon="12.209015">
        <time>1970-01-01T00:00:00+00:00</time>
        <ele>1720.0</ele>
      </trkpt>
      <trkpt lat="46.626453" lon="12.209612">
        <time>1970-01-01T00:00:00+00:00</time>
        <ele>1720.0</ele>
      </trkpt>
      <trkpt lat="46.626354" lon="12.209652">
        <time>1970-01-01T00:00:00+00:00</time>
        <ele>1718.0</ele>
      </trkpt>
      <trkpt lat="46.626359" lon="12.20948">
        <time>1970-01-01T00:00:00+00:00</time>
        <ele>1714.0</ele>
      </trkpt>
      <trkpt lat="46.626882" lon="12.208023">
        <time>1970-01-01T00:00:00+00:00</time>
        <ele>1709.0</ele>
      </trkpt>
      <trkpt lat="46.627003" lon="12.207829">
        <time>1970-01-01T00:00:00+00:00</time>
        <ele>1706.0</ele>
      </trkpt>
      <trkpt lat="46.627534" lon="12.20741">
        <time>1970-01-01T00:00:00+00:00</time>
        <ele>1709.0</ele>
      </trkpt>
      <trkpt lat="46.627614" lon="12.207076">
        <time>1970-01-01T00:00:00+00:00</time>
        <ele>1698.0</ele>
      </trkpt>
      <trkpt lat="46.627575" lon="12.206754">
        <time>1970-01-01T00:00:00+00:00</time>
        <ele>1693.0</ele>
      </trkpt>
      <trkpt lat="46.627493" lon="12.206698">
        <time>1970-01-01T00:00:00+00:00</time>
        <ele>1690.0</ele>
      </trkpt>
      <trkpt lat="46.627424" lon="12.206741">
        <time>1970-01-01T00:00:00+00:00</time>
        <ele>1690.0</ele>
      </trkpt>
      <trkpt lat="46.627305" lon="12.207065">
        <time>1970-01-01T00:00:00+00:00</time>
        <ele>1693.0</ele>
      </trkpt>
      <trkpt lat="46.627202" lon="12.207183">
        <time>1970-01-01T00:00:00+00:00</time>
        <ele>1694.0</ele>
      </trkpt>
      <trkpt lat="46.626999" lon="12.2072">
        <time>1970-01-01T00:00:00+00:00</time>
        <ele>1690.0</ele>
      </trkpt>
      <trkpt lat="46.626681" lon="12.207105">
        <time>1970-01-01T00:00:00+00:00</time>
        <ele>1680.0</ele>
      </trkpt>
      <trkpt lat="46.626037" lon="12.207455">
        <time>1970-01-01T00:00:00+00:00</time>
        <ele>1669.0</ele>
      </trkpt>
      <trkpt lat="46.625839" lon="12.207712">
        <time>1970-01-01T00:00:00+00:00</time>
        <ele>1665.0</ele>
      </trkpt>
      <trkpt lat="46.625668" lon="12.208075">
        <time>1970-01-01T00:00:00+00:00</time>
        <ele>1665.0</ele>
      </trkpt>
      <trkpt lat="46.625445" lon="12.208332">
        <time>1970-01-01T00:00:00+00:00</time>
        <ele>1660.0</ele>
      </trkpt>
      <trkpt lat="46.62525" lon="12.20898">
        <time>1970-01-01T00:00:00+00:00</time>
        <ele>1660.0</ele>
      </trkpt>
      <trkpt lat="46.625031" lon="12.209333">
        <time>1970-01-01T00:00:00+00:00</time>
        <ele>1652.0</ele>
      </trkpt>
      <trkpt lat="46.624829" lon="12.210044">
        <time>1970-01-01T00:00:00+00:00</time>
        <ele>1652.0</ele>
      </trkpt>
      <trkpt lat="46.624361" lon="12.210562">
        <time>1970-01-01T00:00:00+00:00</time>
        <ele>1638.0</ele>
      </trkpt>
      <trkpt lat="46.624269" lon="12.21133">
        <time>1970-01-01T00:00:00+00:00</time>
        <ele>1632.0</ele>
      </trkpt>
      <trkpt lat="46.624388" lon="12.211764">
        <time>1970-01-01T00:00:00+00:00</time>
        <ele>1630.0</ele>
      </trkpt>
      <trkpt lat="46.624387" lon="12.212153">
        <time>1970-01-01T00:00:00+00:00</time>
        <ele>1628.0</ele>
      </trkpt>
      <trkpt lat="46.62425" lon="12.212739">
        <time>1970-01-01T00:00:00+00:00</time>
        <ele>1618.0</ele>
      </trkpt>
      <trkpt lat="46.624144" lon="12.21356">
        <time>1970-01-01T00:00:00+00:00</time>
        <ele>1621.0</ele>
      </trkpt>
      <trkpt lat="46.623732" lon="12.214732">
        <time>1970-01-01T00:00:00+00:00</time>
        <ele>1612.0</ele>
      </trkpt>
      <trkpt lat="46.623664" lon="12.215182">
        <time>1970-01-01T00:00:00+00:00</time>
        <ele>1617.0</ele>
      </trkpt>
      <trkpt lat="46.623586" lon="12.215315">
        <time>1970-01-01T00:00:00+00:00</time>
        <ele>1614.0</ele>
      </trkpt>
      <trkpt lat="46.623562" lon="12.215142">
        <time>1970-01-01T00:00:00+00:00</time>
        <ele>1607.0</ele>
      </trkpt>
      <trkpt lat="46.623772" lon="12.21398">
        <time>1970-01-01T00:00:00+00:00</time>
        <ele>1601.0</ele>
      </trkpt>
      <trkpt lat="46.62386" lon="12.212627">
        <time>1970-01-01T00:00:00+00:00</time>
        <ele>1591.0</ele>
      </trkpt>
      <trkpt lat="46.623733" lon="12.212137">
        <time>1970-01-01T00:00:00+00:00</time>
        <ele>1589.0</ele>
      </trkpt>
      <trkpt lat="46.623429" lon="12.211933">
        <time>1970-01-01T00:00:00+00:00</time>
        <ele>1578.0</ele>
      </trkpt>
      <trkpt lat="46.623374" lon="12.211501">
        <time>1970-01-01T00:00:00+00:00</time>
        <ele>1574.0</ele>
      </trkpt>
      <trkpt lat="46.623455" lon="12.210676">
        <time>1970-01-01T00:00:00+00:00</time>
        <ele>1569.0</ele>
      </trkpt>
      <trkpt lat="46.62367" lon="12.209741">
        <time>1970-01-01T00:00:00+00:00</time>
        <ele>1571.0</ele>
      </trkpt>
      <trkpt lat="46.623648" lon="12.209496">
        <time>1970-01-01T00:00:00+00:00</time>
        <ele>1568.0</ele>
      </trkpt>
      <trkpt lat="46.623549" lon="12.209272">
        <time>1970-01-01T00:00:00+00:00</time>
        <ele>1560.0</ele>
      </trkpt>
      <trkpt lat="46.623568" lon="12.208198">
        <time>1970-01-01T00:00:00+00:00</time>
        <ele>1554.0</ele>
      </trkpt>
      <trkpt lat="46.623705" lon="12.207641">
        <time>1970-01-01T00:00:00+00:00</time>
        <ele>1555.0</ele>
      </trkpt>
      <trkpt lat="46.624045" lon="12.207196">
        <time>1970-01-01T00:00:00+00:00</time>
        <ele>1559.0</ele>
      </trkpt>
      <trkpt lat="46.62402" lon="12.207105">
        <time>1970-01-01T00:00:00+00:00</time>
        <ele>1555.0</ele>
      </trkpt>
      <trkpt lat="46.623957" lon="12.207093">
        <time>1970-01-01T00:00:00+00:00</time>
        <ele>1553.0</ele>
      </trkpt>
      <trkpt lat="46.623534" lon="12.207728">
        <time>1970-01-01T00:00:00+00:00</time>
        <ele>1546.0</ele>
      </trkpt>
      <trkpt lat="46.623345" lon="12.208254">
        <time>1970-01-01T00:00:00+00:00</time>
        <ele>1540.0</ele>
      </trkpt>
      <trkpt lat="46.622981" lon="12.209632">
        <time>1970-01-01T00:00:00+00:00</time>
        <ele>1528.0</ele>
      </trkpt>
      <trkpt lat="46.622951" lon="12.210296">
        <time>1970-01-01T00:00:00+00:00</time>
        <ele>1529.0</ele>
      </trkpt>
      <trkpt lat="46.622623" lon="12.21107">
        <time>1970-01-01T00:00:00+00:00</time>
        <ele>1519.0</ele>
      </trkpt>
      <trkpt lat="46.622444" lon="12.212001">
        <time>1970-01-01T00:00:00+00:00</time>
        <ele>1514.0</ele>
      </trkpt>
      <trkpt lat="46.622251" lon="12.212546">
        <time>1970-01-01T00:00:00+00:00</time>
        <ele>1507.0</ele>
      </trkpt>
      <trkpt lat="46.622198" lon="12.213115">
        <time>1970-01-01T00:00:00+00:00</time>
        <ele>1506.0</ele>
      </trkpt>
      <trkpt lat="46.622043" lon="12.213853">
        <time>1970-01-01T00:00:00+00:00</time>
        <ele>1505.0</ele>
      </trkpt>
      <trkpt lat="46.621632" lon="12.214735">
        <time>1970-01-01T00:00:00+00:00</time>
        <ele>1495.0</ele>
      </trkpt>
      <trkpt lat="46.621558" lon="12.215225">
        <time>1970-01-01T00:00:00+00:00</time>
        <ele>1492.0</ele>
      </trkpt>
      <trkpt lat="46.62159" lon="12.215953">
        <time>1970-01-01T00:00:00+00:00</time>
        <ele>1496.0</ele>
      </trkpt>
      <trkpt lat="46.62147" lon="12.216113">
        <time>1970-01-01T00:00:00+00:00</time>
        <ele>1494.0</ele>
      </trkpt>
      <trkpt lat="46.621299" lon="12.214474">
        <time>1970-01-01T00:00:00+00:00</time>
        <ele>1483.0</ele>
      </trkpt>
      <trkpt lat="46.621321" lon="12.213268">
        <time>1970-01-01T00:00:00+00:00</time>
        <ele>1474.0</ele>
      </trkpt>
      <trkpt lat="46.62114" lon="12.212688">
        <time>1970-01-01T00:00:00+00:00</time>
        <ele>1465.0</ele>
      </trkpt>
      <trkpt lat="46.621099" lon="12.212376">
        <time>1970-01-01T00:00:00+00:00</time>
        <ele>1462.0</ele>
      </trkpt>
      <trkpt lat="46.621455" lon="12.211393">
        <time>1970-01-01T00:00:00+00:00</time>
        <ele>1463.0</ele>
      </trkpt>
      <trkpt lat="46.62148" lon="12.211218">
        <time>1970-01-01T00:00:00+00:00</time>
        <ele>1461.0</ele>
      </trkpt>
      <trkpt lat="46.621416" lon="12.21112">
        <time>1970-01-01T00:00:00+00:00</time>
        <ele>1457.0</ele>
      </trkpt>
      <trkpt lat="46.621473" lon="12.211099">
        <time>1970-01-01T00:00:00+00:00</time>
        <ele>1459.0</ele>
      </trkpt>
      <trkpt lat="46.621323" lon="12.211279">
        <time>1970-01-01T00:00:00+00:00</time>
        <ele>1455.0</ele>
      </trkpt>
      <trkpt lat="46.621282" lon="12.211439">
        <time>1970-01-01T00:00:00+00:00</time>
        <ele>1457.0</ele>
      </trkpt>
      <trkpt lat="46.620961" lon="12.211968">
        <time>1970-01-01T00:00:00+00:00</time>
        <ele>1452.0</ele>
      </trkpt>
      <trkpt lat="46.620651" lon="12.213062">
        <time>1970-01-01T00:00:00+00:00</time>
        <ele>1450.0</ele>
      </trkpt>
      <trkpt lat="46.620529" lon="12.213254">
        <time>1970-01-01T00:00:00+00:00</time>
        <ele>1447.0</ele>
      </trkpt>
      <trkpt lat="46.620383" lon="12.214028">
        <time>1970-01-01T00:00:00+00:00</time>
        <ele>1444.0</ele>
      </trkpt>
      <trkpt lat="46.620518" lon="12.214964">
        <time>1970-01-01T00:00:00+00:00</time>
        <ele>1449.0</ele>
      </trkpt>
      <trkpt lat="46.620458" lon="12.215265">
        <time>1970-01-01T00:00:00+00:00</time>
        <ele>1447.0</ele>
      </trkpt>
      <trkpt lat="46.620252" lon="12.215579">
        <time>1970-01-01T00:00:00+00:00</time>
        <ele>1441.0</ele>
      </trkpt>
      <trkpt lat="46.620162" lon="12.215914">
        <time>1970-01-01T00:00:00+00:00</time>
        <ele>1440.0</ele>
      </trkpt>
      <trkpt lat="46.620299" lon="12.216505">
        <time>1970-01-01T00:00:00+00:00</time>
        <ele>1442.0</ele>
      </trkpt>
      <trkpt lat="46.620607" lon="12.217221">
        <time>1970-01-01T00:00:00+00:00</time>
        <ele>1440.0</ele>
      </trkpt>
      <trkpt lat="46.620476" lon="12.217372">
        <time>1970-01-01T00:00:00+00:00</time>
        <ele>1437.0</ele>
      </trkpt>
      <trkpt lat="46.620283" lon="12.217426">
        <time>1970-01-01T00:00:00+00:00</time>
        <ele>1436.0</ele>
      </trkpt>
      <trkpt lat="46.620216" lon="12.217356">
        <time>1970-01-01T00:00:00+00:00</time>
        <ele>1436.0</ele>
      </trkpt>
      <trkpt lat="46.620129" lon="12.21748">
        <time>1970-01-01T00:00:00+00:00</time>
        <ele>1435.0</ele>
      </trkpt>
      <trkpt lat="46.620236" lon="12.217464">
        <time>1970-01-01T00:00:00+00:00</time>
        <ele>1435.0</ele>
      </trkpt>
      <trkpt lat="46.620214" lon="12.217669">
        <time>1970-01-01T00:00:00+00:00</time>
        <ele>1434.0</ele>
      </trkpt>
      <trkpt lat="46.62025" lon="12.217699">
        <time>1970-01-01T00:00:00+00:00</time>
        <ele>1434.0</ele>
      </trkpt>
      <trkpt lat="46.620207" lon="12.217792">
        <time>1970-01-01T00:00:00+00:00</time>
        <ele>1433.0</ele>
      </trkpt>
      <trkpt lat="46.620256" lon="12.217552">
        <time>1970-01-01T00:00:00+00:00</time>
        <ele>1435.0</ele>
      </trkpt>
      <trkpt lat="46.620228" lon="12.217577">
        <time>1970-01-01T00:00:00+00:00</time>
        <ele>1435.0</ele>
      </trkpt>
      <trkpt lat="46.620326" lon="12.217741">
        <time>1970-01-01T00:00:00+00:00</time>
        <ele>1434.0</ele>
      </trkpt>
      <trkpt lat="46.621432" lon="12.217698">
        <time>1970-01-01T00:00:00+00:00</time>
        <ele>1487.0</ele>
      </trkpt>
    </trkseg>
  </trk>
</gpx>
